• In Netherlands
  • List of Countries
  • For 7 days
  • Water Temperature
  • Satellite Maps
  • Weather Map
  • Weather Widgets
  • user-avatar
    Login

    Hourly Weather Canillo

    Today, 27 July, Thursday

    Time Temperature Precipitation Wind Pressure Humidity
    00:00 +9°C° 0 mm 2 mps 620 mmHg 78%
    01:00 +9°C° 0 mm 2 mps 619 mmHg 76%
    02:00 +10°C° 0 mm 1 mps 619 mmHg 74%
    03:00 +10°C° 0 mm 1 mps 619 mmHg 73%
    04:00 +11°C° 0 mm 1 mps 620 mmHg 70%
    05:00 +11°C° 0 mm 1 mps 620 mmHg 67%
    06:00 +13°C° 0 mm 1 mps 621 mmHg 63%
    07:00 +15°C° 0 mm 1 mps 622 mmHg 56%
    08:00 +19°C° 0 mm 1 mps 623 mmHg 48%
    09:00 +21°C° 0 mm 1 mps 623 mmHg 41%
    10:00 +21°C° 0 mm 2 mps 624 mmHg 39%
    11:00 +23°C° 0 mm 2 mps 624 mmHg 37%
    12:00 +25°C° 0 mm 2 mps 624 mmHg 34%
    13:00 +25°C° 0 mm 2 mps 624 mmHg 35%
    14:00 +24°C° 0 mm 3 mps 624 mmHg 36%
    15:00 +24°C° 0 mm 3 mps 624 mmHg 37%
    16:00 +23°C° 0 mm 2 mps 623 mmHg 41%
    17:00 +21°C° 0 mm 2 mps 623 mmHg 46%
    18:00 +20°C° 0 mm 2 mps 622 mmHg 50%
    19:00 +18°C° 0 mm 2 mps 622 mmHg 59%
    20:00 +16°C° 0 mm 2 mps 621 mmHg 69%
    21:00 +13°C° 0 mm 1 mps 621 mmHg 79%
    22:00 +13°C° 0 mm 1 mps 621 mmHg 80%
    23:00 +12°C° 0 mm 1 mps 621 mmHg 82%

    Tomorrow, 28 July, Friday

    Time Temperature Precipitation Wind Pressure Humidity
    00:00 +12°C° 0 mm 1 mps 621 mmHg 84%
    01:00 +12°C° 0 mm 1 mps 621 mmHg 84%
    02:00 +12°C° 0 mm 1 mps 621 mmHg 84%
    03:00 +12°C° 0 mm 1 mps 620 mmHg 84%
    04:00 +12°C° 0 mm 1 mps 621 mmHg 81%
    05:00 +13°C° 0 mm 1 mps 621 mmHg 79%
    06:00 +14°C° 0 mm 1 mps 622 mmHg 76%
    07:00 +16°C° 0 mm 1 mps 623 mmHg 70%
    08:00 +18°C° 0 mm 2 mps 624 mmHg 64%
    09:00 +19°C° 0 mm 2 mps 625 mmHg 58%
    10:00 +20°C° 0 mm 3 mps 625 mmHg 56%
    11:00 +21°C° 0 mm 3 mps 625 mmHg 54%
    12:00 +21°C° 0 mm 3 mps 625 mmHg 52%
    13:00 +22°C° 0.1 mm 3 mps 625 mmHg 52%
    14:00 +22°C° 0.1 mm 3 mps 625 mmHg 52%
    15:00 +22°C° 0.1 mm 3 mps 625 mmHg 51%
    16:00 +21°C° 0.1 mm 3 mps 624 mmHg 56%
    17:00 +20°C° 0.1 mm 2 mps 624 mmHg 60%
    18:00 +20°C° 0.1 mm 2 mps 624 mmHg 64%
    19:00 +19°C° 0.1 mm 1 mps 623 mmHg 72%
    20:00 +16°C° 0.1 mm 1 mps 623 mmHg 80%
    21:00 +14°C° 0.1 mm 1 mps 622 mmHg 88%
    22:00 +13°C° 0.1 mm 1 mps 622 mmHg 88%
    23:00 +13°C° 0.1 mm 1 mps 622 mmHg 88%

    Day after tomorrow, 29 July, Saturday

    Time Temperature Precipitation Wind Pressure Humidity
    00:00 +13°C° 0.1 mm 1 mps 622 mmHg 89%
    01:00 +13°C° 0.1 mm 1 mps 622 mmHg 88%
    02:00 +13°C° 0.1 mm 1 mps 622 mmHg 88%
    03:00 +13°C° 0.1 mm 1 mps 621 mmHg 87%
    04:00 +13°C° 0 mm 1 mps 622 mmHg 84%
    05:00 +14°C° 0 mm 1 mps 622 mmHg 81%
    06:00 +15°C° 0 mm 1 mps 622 mmHg 78%
    07:00 +18°C° 0 mm 1 mps 623 mmHg 67%
    08:00 +20°C° 0 mm 2 mps 624 mmHg 56%
    09:00 +23°C° 0 mm 2 mps 625 mmHg 46%
    10:00 +24°C° 0 mm 3 mps 625 mmHg 41%
    11:00 +26°C° 0 mm 3 mps 626 mmHg 37%
    12:00 +27°C° 0 mm 4 mps 626 mmHg 32%
    13:00 +27°C° 0 mm 4 mps 626 mmHg 32%
    14:00 +27°C° 0 mm 4 mps 625 mmHg 32%
    15:00 +27°C° 0 mm 4 mps 625 mmHg 32%
    16:00 +26°C° 0 mm 4 mps 624 mmHg 38%
    17:00 +24°C° 0 mm 3 mps 624 mmHg 44%
    18:00 +22°C° 0 mm 3 mps 623 mmHg 49%
    19:00 +20°C° 0.1 mm 2 mps 623 mmHg 57%
    20:00 +18°C° 0.1 mm 1 mps 622 mmHg 64%
    21:00 +15°C° 0.1 mm 1 mps 622 mmHg 72%
    22:00 +14°C° 0.1 mm 1 mps 622 mmHg 72%
    23:00 +14°C° 0.1 mm 1 mps 622 mmHg 72%

    30 July, Sunday

    Time Temperature Precipitation Wind Pressure Humidity
    00:00 +14°C° 0.1 mm 1 mps 622 mmHg 72%
    01:00 +13°C° 0 mm 1 mps 621 mmHg 71%
    02:00 +13°C° 0 mm 1 mps 621 mmHg 71%
    03:00 +13°C° 0 mm 1 mps 621 mmHg 70%
    04:00 +13°C° 0 mm 1 mps 621 mmHg 69%
    05:00 +14°C° 0 mm 1 mps 621 mmHg 67%
    06:00 +14°C° 0 mm 1 mps 622 mmHg 66%
    07:00 +16°C° 0 mm 1 mps 622 mmHg 59%
    08:00 +19°C° 0 mm 2 mps 623 mmHg 53%
    09:00 +21°C° 0 mm 3 mps 624 mmHg 46%
    10:00 +22°C° 0 mm 3 mps 624 mmHg 44%
    11:00 +23°C° 0 mm 4 mps 625 mmHg 41%
    12:00 +25°C° 0 mm 4 mps 625 mmHg 38%
    13:00 +25°C° 0 mm 4 mps 624 mmHg 38%
    14:00 +25°C° 0 mm 4 mps 624 mmHg 38%
    15:00 +26°C° 0 mm 4 mps 624 mmHg 38%
    16:00 +23°C° 0.1 mm 4 mps 623 mmHg 44%
    17:00 +22°C° 0.1 mm 3 mps 623 mmHg 49%
    18:00 +21°C° 0.1 mm 2 mps 622 mmHg 55%
    19:00 +19°C° 0 mm 2 mps 622 mmHg 63%
    20:00 +18°C° 0 mm 1 mps 621 mmHg 71%
    21:00 +15°C° 0 mm 1 mps 621 mmHg 78%
    22:00 +14°C° 0 mm 1 mps 621 mmHg 79%
    23:00 +14°C° 0 mm 1 mps 621 mmHg 80%

    31 July, Monday

    Time Temperature Precipitation Wind Pressure Humidity
    00:00 +14°C° 0 mm 1 mps 620 mmHg 81%
    01:00 +13°C° 0 mm 1 mps 620 mmHg 80%
    02:00 +13°C° 0 mm 1 mps 620 mmHg 78%
    03:00 +13°C° 0 mm 1 mps 619 mmHg 77%
    04:00 +13°C° 0 mm 1 mps 619 mmHg 73%
    05:00 +14°C° 0 mm 1 mps 620 mmHg 69%
    06:00 +15°C° 0 mm 2 mps 620 mmHg 64%
    07:00 +17°C° 0 mm 2 mps 621 mmHg 57%
    08:00 +20°C° 0 mm 3 mps 622 mmHg 50%
    09:00 +22°C° 0 mm 3 mps 623 mmHg 43%
    10:00 +23°C° 0 mm 4 mps 623 mmHg 40%
    11:00 +25°C° 0 mm 4 mps 623 mmHg 37%
    12:00 +26°C° 0 mm 5 mps 623 mmHg 34%
    13:00 +26°C° 0 mm 5 mps 623 mmHg 35%
    14:00 +26°C° 0 mm 5 mps 622 mmHg 36%
    15:00 +26°C° 0 mm 5 mps 622 mmHg 37%
    16:00 +25°C° 0.1 mm 4 mps 621 mmHg 42%
    17:00 +22°C° 0.1 mm 4 mps 621 mmHg 47%
    18:00 +21°C° 0.1 mm 3 mps 620 mmHg 52%
    19:00 +19°C° 0.1 mm 2 mps 620 mmHg 57%
    20:00 +17°C° 0.1 mm 2 mps 619 mmHg 63%
    21:00 +15°C° 0.1 mm 2 mps 619 mmHg 69%
    22:00 +14°C° 0 mm 1 mps 619 mmHg 67%
    23:00 +14°C° 0 mm 1 mps 619 mmHg 65%

    1 August, Tuesday

    Time Temperature Precipitation Wind Pressure Humidity
    00:00 +14°C° 0 mm 1 mps 618 mmHg 63%
    01:00 +13°C° 0 mm 1 mps 618 mmHg 62%
    02:00 +13°C° 0 mm 1 mps 618 mmHg 62%
    03:00 +13°C° 0 mm 1 mps 618 mmHg 61%
    04:00 +13°C° 0 mm 1 mps 618 mmHg 63%
    05:00 +13°C° 0 mm 1 mps 619 mmHg 65%
    06:00 +14°C° 0 mm 1 mps 619 mmHg 67%
    07:00 +15°C° 0 mm 1 mps 620 mmHg 65%
    08:00 +16°C° 0 mm 1 mps 621 mmHg 63%
    09:00 +17°C° 0 mm 2 mps 622 mmHg 61%
    10:00 +18°C° 0.1 mm 2 mps 622 mmHg 60%
    11:00 +18°C° 0.1 mm 2 mps 622 mmHg 58%
    12:00 +19°C° 0.1 mm 3 mps 623 mmHg 56%
    13:00 +19°C° 0.1 mm 2 mps 623 mmHg 54%
    14:00 +20°C° 0.1 mm 2 mps 623 mmHg 52%
    15:00 +20°C° 0.1 mm 2 mps 623 mmHg 51%
    16:00 +19°C° 0 mm 2 mps 623 mmHg 54%
    17:00 +18°C° 0 mm 2 mps 623 mmHg 57%
    18:00 +18°C° 0 mm 2 mps 623 mmHg 60%
    19:00 +16°C° 0 mm 2 mps 623 mmHg 69%
    20:00 +14°C° 0 mm 2 mps 622 mmHg 78%
    21:00 +12°C° 0 mm 1 mps 622 mmHg 87%
    22:00 +12°C° 0 mm 1 mps 622 mmHg 88%
    23:00 +11°C° 0 mm 1 mps 622 mmHg 89%
    Show more